Orbital Elements at Epoch 2459200.5 (2020-Dec-17.0) TDB
Reference: JPL 15 (heliocentric ecliptic J2000)
Element | Value | Uncertainty (1-sigma) | Units |
e | .6237184703779829 | 1.0638e-06 | |
a | .8657450517278984 | 1.7788e-08 | au |
q | .3257638723268659 | 9.1844e-07 | au |
i | 27.74462181832995 | 9.8347e-05 | deg |
node | 354.8264973595721 | 6.1846e-05 | deg |
peri | 228.1292135596677 | 6.2503e-05 | deg |
M | 42.08400803944491 | 0.00020158 | deg |
tp | 2459166.104783461028 (2020-Nov-12.60478346) | 0.0001638 | TDB |
period | 294.2276301825619 0.81 | 9.0679e-06 2.483e-08 | d yr |
n | 1.223542465323966 | 3.7709e-08 | deg/d |
Q | 1.405726231128931 | 2.8882e-08 | au |
|
| | Orbit Determination Parameters
Additional Information
|